Location: Dumpton Point
(51.3500°N, 1.4433°E)
Time: 17:34:52
(UTC+00:00)

Vanguard 3 - Pass Details

Date: 27 April 2021
Orbit: 507 x 3262 km, 33.4° (Epoch: 16 May)

Event Time Altitude Azimuth Distance (km) Brightness Sun altitude
Rises 22:19:15 0° 219° (SW) 5,456 11.1 -21.5°
Enters shadow 22:22:53 - 209° (SSW) 4,452 10.6 -21.7°
Reaches altitude 10° 22:25:35 10° 198° (SSW) 3,766 - -21.9°
Maximum altitude 22:29:41 14° 172° (S) 3,015 - -22.1°
Drops below altitude 10° 22:33:00 10° 144° (SE) 2,905 - -22.3°
Sets 22:36:41 0° 118° (ESE) 3,431 - -22.5°
